Pittsfield, MA

5:37 AM EST on December 16, 2019 (GMT -0500)
Pittsfield Municipal

Weather History for KPSF - August, 2019

Change the Weather History Date:

Thursday, August 15, 2019

  Actual Average Record
Temperature  
Mean Temperature 68 °F 67 °F  
Max Temperature 82 °F 78 °F 90 °F (1936)
Min Temperature 54 °F 56 °F 44 °F (1961)
Degree Days  
Heating Degree Days 0 1  
Month to date heating degree days 2 15  
Since 1 June heating degree days 69 147  
Since 1 July heating degree days 2 46  
Cooling Degree Days 3 3  
Month to date cooling degree days 56 57  
Year to date cooling degree days 332 234  
Since 1 June cooling degree days 326 221  
Growing Degree Days 18 (Base 50)    
Moisture  
Dew Point 59 °F    
Average Humidity 70    
Maximum Humidity 93    
Minimum Humidity 47    
Precipitation  
Precipitation 0.05 in 0.13 in 1.14 in (2011)
Month to date precipitation 0.71 2.05  
Year to date precipitation 26.85 27.74  
Sea Level Pressure  
Sea Level Pressure 29.96 in    
Wind  
Wind Speed 2 mph (West)    
Max Wind Speed 10 mph    
Max Gust Speed 13 mph    
Visibility 10 miles    
Events Rain    
T = Trace of Precipitation, MM = Missing Value Source: NWS Daily Summary

Daily Weather History Graph

Daily Weather History Graph

Search for Another Location

Airport or City:

Astronomy

Aug. 15, 2019 Rise Set
Actual Time 5:59 AM EDT 7:54 PM EDT
Civil Twilight 5:29 AM EDT 8:24 PM EDT
Nautical Twilight 4:52 AM EDT 9:01 PM EDT
Astronomical Twilight 4:12 AM EDT 9:41 PM EDT
Moon 8:22 PM EDT (8/15) 5:50 AM EDT (8/15)
Length of Visible Light 14h 55m
Length of Day
13h 54m
Full, 100% of the Moon is Illuminated
Aug 15
Full
Aug 23
Last Quarter
Aug 30
New
Sep 5
First Quarter
Sep 14
Full

Hourly Weather History & Observations

Time (EDT) Temp. Heat Index Dew Point Humidity Pressure Visibility Wind Dir Wind Speed Gust Speed Precip Events Conditions
12:54 AM 57.0 °F - 54.0 °F 89% 29.92 in 10.0 mi Calm Calm - N/A   Clear
1:54 AM 55.9 °F - 54.0 °F 93% 29.92 in 10.0 mi Calm Calm - N/A   Clear
2:54 AM 55.9 °F - 53.1 °F 90% 29.93 in 10.0 mi Calm Calm - N/A   Clear
3:54 AM 55.9 °F - 53.1 °F 90% 29.93 in 10.0 mi Calm Calm - N/A   Clear
4:54 AM 55.0 °F - 52.0 °F 89% 29.93 in 10.0 mi Calm Calm - N/A   Clear
5:22 AM 54.0 °F - 52.0 °F 93% 30.00 in 10.0 mi Calm Calm - N/A   Mostly Cloudy
5:54 AM 55.0 °F - 53.1 °F 93% 29.95 in 10.0 mi Calm Calm - N/A   Scattered Clouds
6:54 AM 57.9 °F - 55.0 °F 90% 29.96 in 10.0 mi Calm Calm - N/A   Clear
7:54 AM 63.0 °F - 55.9 °F 78% 29.99 in 10.0 mi Calm Calm - N/A   Partly Cloudy
8:54 AM 69.1 °F - 57.0 °F 65% 29.98 in 10.0 mi NNE 3.5 mph - N/A   Clear
9:54 AM 72.0 °F - 59.0 °F 64% 29.99 in 10.0 mi Variable 3.5 mph - N/A   Clear
10:54 AM 75.0 °F - 61.0 °F 62% 29.99 in 10.0 mi Calm Calm - N/A   Scattered Clouds
11:54 AM 75.9 °F - 63.0 °F 64% 29.99 in 10.0 mi Variable 3.5 mph - N/A   Clear
12:54 PM 79.0 °F - 62.1 °F 56% 29.97 in 10.0 mi West 5.8 mph - N/A   Clear
1:54 PM 79.0 °F - 60.1 °F 52% 29.96 in 10.0 mi Variable 3.5 mph - N/A   Partly Cloudy
2:54 PM 81.0 °F 81.6 °F 60.1 °F 49% 29.94 in 10.0 mi Variable 3.5 mph - N/A   Scattered Clouds
3:54 PM 82.0 °F 82.4 °F 60.1 °F 47% 29.93 in 10.0 mi West 5.8 mph - N/A   Partly Cloudy
4:54 PM 77.0 °F - 63.0 °F 62% 29.94 in 10.0 mi SSE 4.6 mph - N/A   Mostly Cloudy
5:54 PM 75.0 °F - 63.0 °F 66% 29.94 in 10.0 mi Calm Calm - 0.00 in   Overcast
6:54 PM 71.1 °F - 64.9 °F 81% 29.96 in 10.0 mi West 8.1 mph - 0.01 in Rain Light Rain
7:54 PM 68.0 °F - 64.9 °F 90% 29.97 in 10.0 mi SE 3.5 mph - 0.03 in   Overcast
8:54 PM 66.9 °F - 64.0 °F 90% 29.97 in 10.0 mi East 3.5 mph - N/A   Scattered Clouds
9:54 PM 66.0 °F - 64.0 °F 93% 29.97 in 6.0 mi NW 3.5 mph - N/A   Clear
10:54 PM 64.9 °F - 63.0 °F 93% 29.98 in 6.0 mi Calm Calm - N/A   Scattered Clouds
11:54 PM 64.9 °F - 59.0 °F 81% 30.00 in 10.0 mi Calm Calm - N/A   Partly Cloudy